DW4338 Bergen NO current weather conditions

sailwx.info

Wind from 146

Air temperature 5.6° C
Dewpoint 3.1° C

Last reported at 2017-Mar-29 10:47 UTC.
Time now 2017-Mar-29 11:10 UTC

Location: N 60°31' E 004°54'.
View on Google Maps.

See reports from other nearby stations

  
Tides and Currents Weather Stations Pressure Air Temp Water Temp Dewpoint Dewpoint Depression Visibility Wind Speed Wind Dir Waves Ship Positions
date/time (UTC)wind fromknots sea level pressurealtimeterstation pressurevisibilityair tempwater tempwave heightnotes
2017-Mar-29 10:47 146 5.6
2017-Mar-29 10:32 146 5.6
2017-Mar-29 10:17 146 5.6
2017-Mar-29 10:02 146 1 gusting 7 5.6
2017-Mar-29 09:47 146 3 gusting 13 5.6
2017-Mar-29 09:32 146 5.6
2017-Mar-29 09:17 156 5.6
2017-Mar-29 09:02 157 5.6
2017-Mar-29 08:47 156 5.6
2017-Mar-29 08:32 157 5.0
2017-Mar-29 08:17 157 5.0
2017-Mar-29 08:02 157 5.0
2017-Mar-29 07:47 156 4.4
2017-Mar-29 07:32 157 4.4
2017-Mar-29 07:17 156 4.4
2017-Mar-29 07:02 157 4.4
2017-Mar-29 06:47 157 4.4
2017-Mar-29 06:32 157 4.4
2017-Mar-29 06:17 157 4.4
2017-Mar-29 06:02 157 4.4
2017-Mar-29 05:47 157 6 gusting 16 3.9
2017-Mar-29 05:32 156 8 gusting 17 3.9
2017-Mar-29 05:17 170 9 gusting 15 4.4
2017-Mar-29 05:02 170 4.4
2017-Mar-29 04:46 170 6 gusting 13 4.4
2017-Mar-29 04:32 169 5 gusting 15 4.4
2017-Mar-29 04:17 223 6 gusting 28 3.9
2017-Mar-29 04:02 227 10 gusting 25 4.4
2017-Mar-29 03:46 230 12 gusting 28 4.4
2017-Mar-29 03:31 209 15 gusting 29 4.4
2017-Mar-29 03:16 237 14 gusting 35 4.4
2017-Mar-29 03:01 188 13 gusting 24 4.4
2017-Mar-29 02:47 197 12 gusting 27 4.4
2017-Mar-29 02:31 186 13 gusting 23 4.4
2017-Mar-29 02:16 224 11 gusting 28 4.4
2017-Mar-29 02:01 233 8 gusting 26 4.4
2017-Mar-29 01:46 216 10 gusting 26 4.4
2017-Mar-29 01:31 201 8 gusting 27 4.4
2017-Mar-29 01:16 188 8 gusting 33 4.4
2017-Mar-29 01:01 232 9 gusting 30 4.4
2017-Mar-29 00:46 242 9 gusting 20 4.4
2017-Mar-29 00:31 220 8 gusting 19 4.4
2017-Mar-29 00:16 234 9 gusting 24 4.4
2017-Mar-29 00:01 198 15 gusting 33 4.4
2017-Mar-28 23:46 212 9 gusting 23 4.4
2017-Mar-28 23:31 216 13 gusting 30 4.4
2017-Mar-28 23:16 200 16 gusting 29 4.4
2017-Mar-28 23:01 178 17 gusting 35 4.4
2017-Mar-28 22:46 144 12 gusting 34 4.4
2017-Mar-28 22:31 232 12 gusting 26 4.4
2017-Mar-28 22:16 189 10 gusting 34 4.4
2017-Mar-28 22:01 169 13 gusting 30 5.0
2017-Mar-28 21:46 212 10 gusting 24 5.0
2017-Mar-28 21:31 171 6 gusting 22 5.0
2017-Mar-28 21:16 172 7 gusting 17 5.0
2017-Mar-28 21:01 076 7 gusting 11 5.0
2017-Mar-28 20:46 075 5 gusting 7 5.0
2017-Mar-28 20:31 074 1 gusting 11 5.0
2017-Mar-28 20:16 073 8 gusting 16 5.0
2017-Mar-28 20:01 040 9 gusting 16 5.0
2017-Mar-28 19:46 036 7 gusting 15 5.0
2017-Mar-28 19:31 018 5.0
2017-Mar-28 19:16 017 5.0
2017-Mar-28 19:01 017 4 gusting 10 5.6
2017-Mar-28 18:46 017 2 gusting 11 5.6
2017-Mar-28 18:31 017 6 gusting 13 5.6
2017-Mar-28 18:16 017 5 gusting 13 6.1
2017-Mar-28 18:01 017 3 gusting 12 6.1
2017-Mar-28 17:46 017 4 gusting 12 6.1
2017-Mar-28 17:31 016 3 gusting 11 6.7
2017-Mar-28 17:16 016 2 gusting 9 6.7
2017-Mar-28 17:01 015 8 gusting 18 7.2
2017-Mar-28 16:46 023 4 gusting 13 7.8
2017-Mar-28 16:31 020 7 gusting 17 7.8
2017-Mar-28 16:16 028 8 gusting 21 7.2
2017-Mar-28 16:01 005 12 gusting 22 7.8
2017-Mar-28 15:46 005 13 gusting 27 8.3
2017-Mar-28 15:30 360 7 gusting 17 7.8
2017-Mar-28 15:15 355 9 gusting 22 7.8
2017-Mar-28 15:00 009 10 gusting 22 8.3
2017-Mar-28 14:45 005 6 gusting 16 7.8
2017-Mar-28 14:30 022 9 gusting 26 8.3
2017-Mar-28 14:15 005 8 gusting 17 8.9
2017-Mar-28 14:00 021 9 gusting 18 8.9
2017-Mar-28 13:45 020 9 gusting 22 8.9
2017-Mar-28 13:30 010 13 gusting 28 8.9
2017-Mar-28 13:15 014 11 gusting 30 8.9
2017-Mar-28 13:00 360 11 gusting 23 8.9
2017-Mar-28 12:45 005 13 gusting 26 8.9
2017-Mar-28 12:30 355 13 gusting 30 8.3
2017-Mar-28 12:15 355 13 gusting 33 8.3
2017-Mar-28 12:00 024 10 gusting 27 8.3
2017-Mar-28 11:45 355 15 gusting 27 7.8
2017-Mar-28 11:30 036 14 gusting 26 7.8
2017-Mar-28 11:15 334 14 gusting 35 7.8
2017-Mar-28 11:00 360 19 gusting 31 7.8
2017-Mar-28 10:45 015 13 gusting 30 7.8
2017-Mar-28 10:30 360 15 gusting 29 7.8
2017-Mar-28 10:15 333 4 gusting 20 7.8
2017-Mar-28 10:00 360 3 gusting 18 7.2
2017-Mar-28 09:45 355 8 gusting 24 7.2
2017-Mar-28 09:30 011 9 gusting 26 6.7
2017-Mar-28 09:15 317 13 gusting 29 6.7
2017-Mar-28 09:00 360 10 gusting 26 6.1
2017-Mar-28 08:44 051 7 gusting 23 6.1
2017-Mar-28 08:29 074 8 gusting 30 5.6
2017-Mar-28 08:14 053 6 gusting 26 5.6
2017-Mar-28 07:59 022 10 gusting 25 5.6
2017-Mar-28 07:44 023 14 gusting 33 5.6
2017-Mar-28 07:29 055 7 gusting 25 5.0
2017-Mar-28 07:14 046 4 gusting 21 5.0
2017-Mar-28 06:59 022 8 gusting 23 5.0
2017-Mar-28 06:44 347 6 gusting 19 4.4
2017-Mar-28 06:29 009 5 gusting 15 4.4
2017-Mar-28 06:14 045 3 gusting 17 4.4
2017-Mar-28 05:59 360 6 gusting 19 4.4
2017-Mar-28 05:44 005 8 gusting 19 3.9
2017-Mar-28 05:29 360 9 gusting 18 3.9
2017-Mar-28 05:14 355 8 gusting 22 3.9
2017-Mar-28 04:59 360 8 gusting 19 3.9
2017-Mar-28 04:44 020 7 gusting 19 3.9
2017-Mar-28 04:29 009 11 gusting 17 3.9
2017-Mar-28 04:14 013 8 gusting 17 3.9
2017-Mar-28 03:59 019 4 gusting 13 3.9
2017-Mar-28 03:44 017 5 gusting 17 3.9
2017-Mar-28 03:29 005 5 gusting 18 4.4
2017-Mar-28 03:14 014 7 gusting 19 4.4
2017-Mar-28 02:59 012 6 gusting 13 3.9
2017-Mar-28 02:44 012 5 gusting 13 3.9
2017-Mar-28 02:29 013 7 gusting 17 3.9
2017-Mar-28 02:14 360 7 gusting 17 3.9
2017-Mar-28 01:59 011 7 gusting 17 3.9
2017-Mar-28 01:44 010 6 gusting 19 3.9
2017-Mar-28 01:29 011 7 gusting 19 3.9
2017-Mar-28 01:14 012 11 gusting 25 3.9
2017-Mar-28 00:59 005 11 gusting 22 4.4
2017-Mar-28 00:44 011 6 gusting 22 4.4
2017-Mar-28 00:29 355 9 gusting 20 4.4
2017-Mar-28 00:13 005 12 gusting 20 4.4
2017-Mar-27 23:58 005 11 gusting 19 4.4
2017-Mar-27 23:44 360 6 gusting 19 4.4
2017-Mar-27 23:28 355 10 gusting 25 5.0
2017-Mar-27 23:13 018 14 gusting 33 5.0
2017-Mar-27 22:58 360 11 gusting 26 5.0
2017-Mar-27 22:43 355 12 gusting 28 5.0
2017-Mar-27 22:28 005 10 gusting 21 5.0
2017-Mar-27 22:13 005 8 gusting 20 5.0
2017-Mar-27 21:58 024 14 gusting 26 5.0
2017-Mar-27 21:43 360 6 gusting 19 5.6
2017-Mar-27 21:28 012 9 gusting 19 5.6
2017-Mar-27 21:13 015 6 gusting 13 5.6
2017-Mar-27 20:58 039 6 gusting 16 5.6
2017-Mar-27 20:43 058 5.6
2017-Mar-27 20:28 056 3 gusting 11 5.6
2017-Mar-27 20:13 034 5.6
2017-Mar-27 19:58 034 5.6
2017-Mar-27 19:43 034 5 gusting 10 5.6
2017-Mar-27 19:28 034 5 gusting 15 5.6
2017-Mar-27 19:13 034 2 gusting 19 5.6
2017-Mar-27 18:58 046 4 gusting 13 5.6
2017-Mar-27 18:43 047 5.6
2017-Mar-27 18:28 034 5.6
2017-Mar-27 18:13 034 1 gusting 16 5.6
2017-Mar-27 17:58 009 3 gusting 20 5.6
2017-Mar-27 17:43 005 5 gusting 19 5.6
2017-Mar-27 17:28 009 6 gusting 19 6.1
2017-Mar-27 17:13 014 7 gusting 18 6.1
2017-Mar-27 16:58 355 10 gusting 25 6.7
2017-Mar-27 16:43 012 13 gusting 25 6.7
2017-Mar-27 16:28 346 13 gusting 27 7.2
2017-Mar-27 16:13 341 10 gusting 19 7.2
2017-Mar-27 15:58 355 4 gusting 15 7.2
2017-Mar-27 15:43 017 4 gusting 15 7.2
2017-Mar-27 15:28 009 8 gusting 25 7.2
2017-Mar-27 15:13 355 6 gusting 20 7.2
2017-Mar-27 14:58 323 12 gusting 19 7.8
2017-Mar-27 14:43 320 13 gusting 19 7.2
2017-Mar-27 14:28 350 10 gusting 25 6.7
2017-Mar-27 14:12 344 6 gusting 27 6.7
2017-Mar-27 13:57 344 10 gusting 20 6.7
2017-Mar-27 13:43 355 2 gusting 13 6.7
2017-Mar-27 13:27 005 7 gusting 22 6.7
2017-Mar-27 13:12 342 3 gusting 17 6.7
2017-Mar-27 12:57 314 14 gusting 32 6.7
2017-Mar-27 12:43 312 18 gusting 28 6.1
2017-Mar-27 12:27 325 13 gusting 24 6.1
2017-Mar-27 12:12 327 15 gusting 24 6.1
2017-Mar-27 11:57 312 13 gusting 27 5.6
2017-Mar-27 11:42 318 19 gusting 26 6.1
2017-Mar-27 11:27 317 15 gusting 21 6.1
2017-Mar-27 11:12 322 15 gusting 19 6.1